Los Angeles Weather Center

Moon Phase Calendar



Online Cameras

 


      

Current Conditions in Rossmoor
1/18/2021 1:59:10 AM

53°F
Feels Like 53
Clear
Humidity
93%
Pressure
29.91"
Wind
1.6 mph (S)
Dew Point
51°F
UV Index
0/10 (Low)
Visibility
6 mi

Hourly Forecast

Date & Time Mon, Jan 18
1:00 AM
Mon, Jan 18
2:00 AM
Mon, Jan 18
3:00 AM
Mon, Jan 18
4:00 AM
Mon, Jan 18
5:00 AM
Mon, Jan 18
6:00 AM
Mon, Jan 18
7:00 AM
Mon, Jan 18
8:00 AM
Mon, Jan 18
9:00 AM
Mon, Jan 18
10:00 AM
Mon, Jan 18
11:00 AM
Mon, Jan 18
12:00 PM
Mon, Jan 18
1:00 PM
Mon, Jan 18
2:00 PM
Mon, Jan 18
3:00 PM
Mon, Jan 18
4:00 PM
Mon, Jan 18
5:00 PM
Mon, Jan 18
6:00 PM
Mon, Jan 18
7:00 PM
Mon, Jan 18
8:00 PM
Mon, Jan 18
9:00 PM
Mon, Jan 18
10:00 PM
Mon, Jan 18
11:00 PM
Tue, Jan 19
12:00 AM
Tue, Jan 19
1:00 AM
Tue, Jan 19
2:00 AM
Tue, Jan 19
3:00 AM
Tue, Jan 19
4:00 AM
Tue, Jan 19
5:00 AM
Tue, Jan 19
6:00 AM
Tue, Jan 19
7:00 AM
Tue, Jan 19
8:00 AM
Tue, Jan 19
9:00 AM
Tue, Jan 19
10:00 AM
Tue, Jan 19
11:00 AM
Tue, Jan 19
12:00 PM
Tue, Jan 19
1:00 PM
Tue, Jan 19
2:00 PM
Tue, Jan 19
3:00 PM
Tue, Jan 19
4:00 PM
Tue, Jan 19
5:00 PM
Tue, Jan 19
6:00 PM
Tue, Jan 19
7:00 PM
Tue, Jan 19
8:00 PM
Tue, Jan 19
9:00 PM
Tue, Jan 19
10:00 PM
Tue, Jan 19
11:00 PM
Wed, Jan 20
12:00 AM
Condition
Clear

Clear

Clear

Clear

Clear

Clear

Clear

Clear

Clear

Clear

Clear

Clear

Clear

Clear

Clear

Clear

Clear

Clear

Clear

Clear

Clear

Clear

Clear

Clear

Clear

Clear

Clear

Clear

Clear

Clear

Clear

Clear

Clear

Clear

Clouds

Clouds

Clouds

Clouds

Clouds

Clouds

Clouds

Clouds

Clouds

Clouds

Clouds

Clouds

Clear

Clear
Temperature 53°F59°F62°F64°F64°F64°F64°F64°F66°F68°F69°F70°F71°F72°F72°F71°F70°F68°F68°F67°F67°F66°F65°F64°F64°F63°F64°F63°F62°F61°F60°F60°F62°F63°F64°F65°F66°F66°F66°F65°F65°F64°F64°F64°F64°F63°F62°F62°F
Feels Like 53°F58°F60°F61°F62°F62°F61°F61°F63°F66°F67°F66°F67°F67°F67°F66°F65°F65°F65°F64°F63°F63°F61°F59°F60°F59°F56°F53°F48°F46°F46°F47°F48°F50°F52°F53°F53°F52°F52°F51°F49°F51°F53°F53°F53°F54°F54°F53°F
Cloudiness 1%1%0%0%0%0%0%0%0%0%0%0%0%0%0%0%0%0%0%0%0%0%0%0%0%0%0%0%0%0%0%0%2%10%100%100%96%98%98%98%100%83%85%75%65%55%1%1%
Visibility 6 mi6 mi6 mi6 mi6 mi6 mi6 mi6 mi6 mi6 mi6 mi6 mi6 mi6 mi6 mi6 mi6 mi6 mi6 mi6 mi6 mi6 mi6 mi6 mi6 mi6 mi6 mi6 mi6 mi6 mi6 mi6 mi6 mi6 mi6 mi6 mi6 mi6 mi6 mi6 mi6 mi6 mi6 mi6 mi6 mi6 mi6 mi6 mi
Precipitation 0%0%0%0%0%0%0%0%0%0%0%0%0%0%0%0%0%0%0%0%0%0%0%0%0%0%0%0%0%0%0%0%0%0%0%0%0%0%0%0%0%2%2%2%2%2%0%0%
Humidity 93%69%55%49%47%48%48%47%44%41%40%38%37%35%36%37%40%42%42%42%42%44%45%48%49%45%33%30%29%29%30%29%28%26%26%25%25%26%26%27%27%27%27%28%28%29%30%30%
Dew Point 51°F49°F46°F44°F43°F44°F44°F44°F44°F44°F44°F44°F44°F43°F43°F44°F44°F44°F44°F44°F43°F43°F43°F45°F45°F42°F35°F30°F22°F19°F19°F19°F18°F19°F19°F20°F22°F24°F26°F27°F26°F25°F25°F25°F25°F26°F27°F27°F
Pressure 29.91"29.91"29.88"29.88"29.85"29.85"29.85"29.85"29.88"29.88"29.88"29.85"29.83"29.8"29.8"29.8"29.8"29.8"29.8"29.83"29.83"29.83"29.83"29.83"29.83"29.83"29.83"29.83"29.83"29.85"29.88"29.88"29.91"29.91"29.94"29.91"29.88"29.88"29.88"29.88"29.91"29.94"29.94"29.94"29.97"29.97"30"30"
Wind Speed 1.6 mph1.6 mph1.9 mph1.8 mph1.2 mph1.4 mph2.4 mph2.7 mph2.2 mph1.4 mph1.8 mph4.4 mph3.6 mph4.7 mph5.7 mph6.4 mph5 mph3 mph3.1 mph3.2 mph3.1 mph2.2 mph4.9 mph6.2 mph3.9 mph4.1 mph7 mph11 mph17.4 mph19.4 mph18.8 mph17 mph16.8 mph16 mph14.2 mph13 mph14.2 mph17.3 mph16.9 mph19.3 mph20.3 mph17.3 mph13 mph11.6 mph11.2 mph8.7 mph8.7 mph9.6 mph
Wind
Direction
224°
SW
170°
S
150°
SSE
183°
S
191°
S
156°
SSE
117°
ESE
98°
E
86°
E
172°
S
234°
SW
233°
SW
220°
SW
212°
SSW
231°
SW
254°
WSW
243°
WSW
258°
WSW
252°
WSW
257°
WSW
261°
W
194°
SSW
173°
S
180°
S
168°
SSE
123°
ESE
62°
ENE
53°
NE
56°
NE
62°
ENE
64°
ENE
53°
NE
57°
ENE
51°
NE
46°
NE
55°
NE
56°
NE
49°
NE
45°
NE
51°
NE
58°
ENE
50°
NE
44°
NE
52°
NE
47°
NE
45°
NE
33°
NNE
28°
NNE

Daily Forecast

Date High Low Precip. Humidity
Today
Jan 18

Clear
72 °F
53 °F
0%
38%
Tuesday
Jan 19

Clouds
66 °F
60 °F
2%
25%
Wednesday
Jan 20

Clear
72 °F
61 °F
0%
26%
Thursday
Jan 21

Clear
67 °F
62 °F
0%
44%
Friday
Jan 22

Rain
62 °F
57 °F
20%
55%
Saturday
Jan 23

Rain
59 °F
55 °F
100%
50%
Sunday
Jan 24

Rain
58 °F
54 °F
90%
48%
Monday
Jan 25

Rain
58 °F
54 °F
78%
56%
Tuesday
Jan 26

Clear
57 °F
50 °F
0%
34%
Wednesday
Jan 27

Rain
57 °F
50 °F
38%
37%
Thursday
Jan 28

Rain
58 °F
54 °F
100%
83%
Friday
Jan 29

Rain
54 °F
48 °F
100%
68%
Saturday
Jan 30

Clear
56 °F
49 °F
19%
53%
Sunday
Jan 31

Clear
61 °F
52 °F
0%
31%
Monday
Feb 1

Clouds
62 °F
54 °F
0%
31%
Tuesday
Feb 2

Clouds
59 °F
56 °F
6%
49%


Temperature 8-14 Day Outlook



Precipitation 8-14 Day Outlook




Quick Links
Los Angeles News
Los Angeles Photos
Los Angeles Videos




About Us
Contact Us
Site Map
Search Site
Advertise With Us
   
LosAngeles.USCoast.info
THE LOS ANGELES WEBSITE

Copyright 2021, Coastal Town
Privacy    |    Legal